• In Deutschland
  • Länderverzeichnis
  • Für 7 Tage
  • Wassertemperatur
  • Satellitenkarten
  • Wetterkarte
  • Widgets
  • user-avatar
    Anmelden

    Stündliche Wetter Butzbach

    Heute, 17 Oktober, Dienstag

    Zeit Temperatur Niederschläge Wind Luftdruck Luftfeuchtigkeit
    00:00 +14°C° 0 mm 1 m/S 748 mmHg 82%
    01:00 +14°C° 0 mm 1 m/S 748 mmHg 83%
    02:00 +14°C° 0 mm 1 m/S 748 mmHg 84%
    03:00 +14°C° 0 mm 1 m/S 748 mmHg 84%
    04:00 +13°C° 0 mm 1 m/S 748 mmHg 85%
    05:00 +13°C° 0 mm 1 m/S 748 mmHg 86%
    06:00 +13°C° 0 mm 1 m/S 748 mmHg 87%
    07:00 +12°C° 0 mm 1 m/S 748 mmHg 82%
    08:00 +14°C° 0 mm 1 m/S 748 mmHg 76%
    09:00 +16°C° 0 mm 1 m/S 748 mmHg 71%
    10:00 +19°C° 0 mm 1 m/S 748 mmHg 65%
    11:00 +20°C° 0 mm 1 m/S 748 mmHg 62%
    12:00 +21°C° 0 mm 1 m/S 748 mmHg 59%
    13:00 +22°C° 0 mm 1 m/S 748 mmHg 56%
    14:00 +22°C° 0 mm 1 m/S 747 mmHg 58%
    15:00 +22°C° 0 mm 1 m/S 747 mmHg 61%
    16:00 +22°C° 0 mm 1 m/S 746 mmHg 64%
    17:00 +20°C° 0 mm 1 m/S 746 mmHg 68%
    18:00 +18°C° 0 mm 1 m/S 746 mmHg 73%
    19:00 +15°C° 0 mm 1 m/S 746 mmHg 78%
    20:00 +15°C° 0 mm 1 m/S 745 mmHg 79%
    21:00 +14°C° 0 mm 1 m/S 745 mmHg 79%
    22:00 +14°C° 0 mm 1 m/S 745 mmHg 80%
    23:00 +13°C° 0 mm 1 m/S 745 mmHg 80%

    Morgen, 18 Oktober, Mittwoch

    Zeit Temperatur Niederschläge Wind Luftdruck Luftfeuchtigkeit
    00:00 +13°C° 0 mm 1 m/S 745 mmHg 81%
    01:00 +13°C° 0 mm 1 m/S 745 mmHg 81%
    02:00 +12°C° 0 mm 1 m/S 744 mmHg 81%
    03:00 +12°C° 0 mm 1 m/S 744 mmHg 81%
    04:00 +12°C° 0 mm 1 m/S 744 mmHg 82%
    05:00 +11°C° 0 mm 1 m/S 744 mmHg 82%
    06:00 +11°C° 0 mm 1 m/S 743 mmHg 82%
    07:00 +11°C° 0 mm 1 m/S 743 mmHg 82%
    08:00 +13°C° 0 mm 1 m/S 743 mmHg 75%
    09:00 +14°C° 0 mm 2 m/S 743 mmHg 69%
    10:00 +16°C° 0 mm 2 m/S 743 mmHg 63%
    11:00 +17°C° 0 mm 2 m/S 743 mmHg 60%
    12:00 +18°C° 0 mm 2 m/S 743 mmHg 57%
    13:00 +19°C° 0 mm 2 m/S 743 mmHg 54%
    14:00 +19°C° 0 mm 2 m/S 742 mmHg 57%
    15:00 +19°C° 0 mm 2 m/S 742 mmHg 60%
    16:00 +20°C° 0 mm 1 m/S 742 mmHg 63%
    17:00 +18°C° 0 mm 1 m/S 742 mmHg 68%
    18:00 +15°C° 0 mm 1 m/S 742 mmHg 73%
    19:00 +14°C° 0 mm 1 m/S 742 mmHg 79%
    20:00 +13°C° 0 mm 1 m/S 742 mmHg 80%
    21:00 +13°C° 0 mm 1 m/S 742 mmHg 81%
    22:00 +13°C° 0 mm 1 m/S 742 mmHg 82%
    23:00 +12°C° 0 mm 1 m/S 742 mmHg 82%

    übermorgen, 19 Oktober, Donnerstag

    Zeit Temperatur Niederschläge Wind Luftdruck Luftfeuchtigkeit
    00:00 +12°C° 0 mm 1 m/S 742 mmHg 82%
    01:00 +12°C° 0 mm 1 m/S 742 mmHg 83%
    02:00 +12°C° 0 mm 1 m/S 742 mmHg 82%
    03:00 +11°C° 0 mm 1 m/S 741 mmHg 82%
    04:00 +11°C° 0 mm 1 m/S 741 mmHg 82%
    05:00 +11°C° 0 mm 1 m/S 741 mmHg 82%
    06:00 +11°C° 0 mm 1 m/S 741 mmHg 81%
    07:00 +11°C° 0 mm 1 m/S 741 mmHg 81%
    08:00 +12°C° 0 mm 1 m/S 741 mmHg 75%
    09:00 +14°C° 0 mm 1 m/S 741 mmHg 69%
    10:00 +16°C° 0 mm 2 m/S 742 mmHg 62%
    11:00 +17°C° 0 mm 2 m/S 742 mmHg 60%
    12:00 +18°C° 0 mm 2 m/S 741 mmHg 58%
    13:00 +19°C° 0 mm 2 m/S 741 mmHg 56%
    14:00 +19°C° 0 mm 2 m/S 741 mmHg 57%
    15:00 +19°C° 0 mm 2 m/S 741 mmHg 59%
    16:00 +20°C° 0 mm 1 m/S 740 mmHg 61%
    17:00 +18°C° 0 mm 1 m/S 741 mmHg 65%
    18:00 +16°C° 0 mm 1 m/S 741 mmHg 70%
    19:00 +14°C° 0 mm 1 m/S 741 mmHg 75%
    20:00 +14°C° 0 mm 1 m/S 741 mmHg 75%
    21:00 +14°C° 0 mm 1 m/S 741 mmHg 75%
    22:00 +14°C° 0 mm 1 m/S 741 mmHg 75%
    23:00 +13°C° 0 mm 1 m/S 741 mmHg 77%

    20 Oktober, Freitag

    Zeit Temperatur Niederschläge Wind Luftdruck Luftfeuchtigkeit
    00:00 +13°C° 0 mm 1 m/S 741 mmHg 78%
    01:00 +13°C° 0 mm 1 m/S 741 mmHg 79%
    02:00 +13°C° 0 mm 1 m/S 741 mmHg 80%
    03:00 +12°C° 0 mm 1 m/S 741 mmHg 81%
    04:00 +12°C° 0 mm 1 m/S 741 mmHg 83%
    05:00 +12°C° 0 mm 1 m/S 741 mmHg 82%
    06:00 +12°C° 0 mm 1 m/S 741 mmHg 81%
    07:00 +12°C° 0 mm 1 m/S 741 mmHg 81%
    08:00 +13°C° 0 mm 1 m/S 742 mmHg 78%
    09:00 +14°C° 0 mm 2 m/S 742 mmHg 75%
    10:00 +15°C° 0 mm 2 m/S 742 mmHg 72%
    11:00 +16°C° 0,1 mm 2 m/S 742 mmHg 71%
    12:00 +17°C° 0,1 mm 2 m/S 742 mmHg 70%
    13:00 +17°C° 0,1 mm 2 m/S 742 mmHg 69%
    14:00 +18°C° 0 mm 2 m/S 742 mmHg 68%
    15:00 +18°C° 0 mm 2 m/S 742 mmHg 68%
    16:00 +18°C° 0 mm 2 m/S 742 mmHg 67%
    17:00 +17°C° 0 mm 2 m/S 742 mmHg 72%
    18:00 +16°C° 0 mm 2 m/S 742 mmHg 76%
    19:00 +14°C° 0 mm 2 m/S 742 mmHg 81%
    20:00 +14°C° 0 mm 2 m/S 743 mmHg 81%
    21:00 +14°C° 0 mm 2 m/S 743 mmHg 82%
    22:00 +14°C° 0 mm 2 m/S 743 mmHg 82%
    23:00 +14°C° 0 mm 2 m/S 743 mmHg 84%

    21 Oktober, Samstag

    Zeit Temperatur Niederschläge Wind Luftdruck Luftfeuchtigkeit
    00:00 +13°C° 0 mm 2 m/S 743 mmHg 85%
    01:00 +13°C° 0 mm 2 m/S 743 mmHg 87%
    02:00 +13°C° 0 mm 2 m/S 742 mmHg 86%
    03:00 +13°C° 0 mm 2 m/S 742 mmHg 86%
    04:00 +13°C° 0 mm 2 m/S 742 mmHg 85%
    05:00 +13°C° 0 mm 2 m/S 742 mmHg 86%
    06:00 +13°C° 0 mm 2 m/S 742 mmHg 87%
    07:00 +12°C° 0 mm 2 m/S 741 mmHg 88%
    08:00 +14°C° 0 mm 2 m/S 742 mmHg 83%
    09:00 +14°C° 0 mm 3 m/S 742 mmHg 77%
    10:00 +17°C° 0 mm 3 m/S 742 mmHg 72%
    11:00 +17°C° 0,1 mm 3 m/S 742 mmHg 73%
    12:00 +17°C° 0,1 mm 4 m/S 742 mmHg 74%
    13:00 +17°C° 0,1 mm 4 m/S 742 mmHg 74%
    14:00 +17°C° 0,5 mm 3 m/S 742 mmHg 79%
    15:00 +16°C° 0,5 mm 3 m/S 742 mmHg 84%
    16:00 +14°C° 0,5 mm 3 m/S 742 mmHg 89%
    17:00 +14°C° 0,1 mm 3 m/S 742 mmHg 90%
    18:00 +13°C° 0,1 mm 3 m/S 742 mmHg 90%
    19:00 +13°C° 0,1 mm 3 m/S 743 mmHg 90%
    20:00 +12°C° 0 mm 3 m/S 743 mmHg 89%
    21:00 +12°C° 0 mm 3 m/S 743 mmHg 89%
    22:00 +11°C° 0 mm 3 m/S 743 mmHg 88%
    23:00 +11°C° 0 mm 3 m/S 743 mmHg 89%

    22 Oktober, Sonntag

    Zeit Temperatur Niederschläge Wind Luftdruck Luftfeuchtigkeit
    00:00 +11°C° 0 mm 3 m/S 743 mmHg 89%
    01:00 +10°C° 0 mm 3 m/S 743 mmHg 90%
    02:00 +10°C° 0 mm 3 m/S 743 mmHg 89%
    03:00 +10°C° 0 mm 4 m/S 743 mmHg 88%
    04:00 +10°C° 0 mm 4 m/S 743 mmHg 87%
    05:00 +10°C° 0 mm 4 m/S 743 mmHg 86%
    06:00 +8°C° 0 mm 4 m/S 743 mmHg 86%
    07:00 +8°C° 0 mm 4 m/S 743 mmHg 86%
    08:00 +8°C° 0 mm 4 m/S 744 mmHg 82%
    09:00 +9°C° 0 mm 5 m/S 744 mmHg 79%
    10:00 +10°C° 0 mm 5 m/S 744 mmHg 75%
    11:00 +10°C° 0,1 mm 5 m/S 745 mmHg 72%
    12:00 +10°C° 0,1 mm 5 m/S 745 mmHg 70%
    13:00 +10°C° 0,1 mm 5 m/S 745 mmHg 67%
    14:00 +10°C° 0,1 mm 5 m/S 745 mmHg 69%
    15:00 +10°C° 0,1 mm 5 m/S 745 mmHg 70%
    16:00 +10°C° 0,1 mm 5 m/S 745 mmHg 72%
    17:00 +10°C° 0 mm 4 m/S 746 mmHg 75%
    18:00 +8°C° 0 mm 4 m/S 746 mmHg 79%
    19:00 +8°C° 0 mm 3 m/S 747 mmHg 82%
    20:00 +8°C° 0 mm 3 m/S 747 mmHg 84%
    21:00 +7°C° 0 mm 3 m/S 747 mmHg 86%
    22:00 +7°C° 0 mm 3 m/S 748 mmHg 87%
    23:00 +7°C° 0 mm 3 m/S 748 mmHg 88%
    Mehr zeigen